This demonstration page uses our WeatherBlox Daily Observations layout. Learn more.

Left ArrowRight Arrow

Hourly Observations for October 2, 2015

Temp ( °F °C ) Dew Point ( °F °C ) Humidity (%) Winds ( mph kmh ) Pressure ( in mb ) Visibility ( mi km ) Precip ( " mm )
12:51 am 00:51 Clear 70 21.1 50 10 49 49 S 7 11 29.80 1009 10 16 0.00 0.00
1:51 am 01:51 Clear 68 20 49 9.4 51 51 E 7 11 29.80 1009 10 16 0.00 0.00
2:51 am 02:51 Clear 67 19.4 48 8.9 51 51 SSE 5 7 29.79 1009 10 16 0.00 0.00
3:51 am 03:51 Clear 64 17.8 49 9.4 58 58 SSE 5 7 29.80 1009 10 16 0.00 0.00
4:51 am 04:51 Clear 63 17.2 49 9.4 60 60 ESE 3 6 29.80 1009 10 16 0.00 0.00
5:51 am 05:51 Clear 63 17.2 48 8.9 58 58 SE 5 7 29.83 1010 10 16 0.00 0.00
6:51 am 06:51 Sunny 63 17.2 49 9.4 60 60 ESE 5 7 29.85 1011 10 16 0.00 0.00
7:51 am 07:51 Sunny 71 21.7 47 8.3 42 42 ESE 6 9 29.83 1010 10 16 0.00 0.00
8:51 am 08:51 Sunny 81 27.2 44 6.7 27 27 ESE 8 13 29.82 1010 10 16 0.00 0.00
9:51 am 09:51 Sunny 84 28.9 45 7.2 25 25 SE 9 15 29.80 1009 10 16 0.00 0.00
10:51 am 10:51 Sunny 87 30.6 44 6.7 22 22 SSE 8 13 29.78 1009 10 16 0.00 0.00
11:51 am 11:51 Sunny 91 32.8 41 5 17 17 VRB 6 9 29.73 1007 10 16 0.00 0.00
12:51 pm 12:51 Sunny 93 33.9 40 4.4 16 16 VRB 3 6 29.70 1006 10 16 0.00 0.00
1:51 pm 13:51 Sunny 93 33.9 41 5 16 16 SE 6 9 29.66 1005 10 16 0.00 0.00
2:51 pm 14:51 Sunny 95 35 41 5 15 15 W 10 17 29.63 1004 10 16 0.00 0.00
3:51 pm 15:51 Sunny 93 33.9 41 5 16 16 W 14 22 29.62 1003 10 16 0.00 0.00
4:51 pm 16:51 Sunny 91 32.8 42 5.6 18 18 WNW 12 19 29.62 1003 10 16 0.00 0.00
5:51 pm 17:51 Sunny 88 31.1 42 5.6 20 20 W 9 15 29.62 1003 10 16 0.00 0.00
6:51 pm 18:51 Clear 85 29.4 43 6.1 23 23 WNW 15 24 29.63 1003 10 16 0.00 0.00
7:51 pm 19:51 Clear 82 27.8 43 6.1 25 25 NNW 10 17 29.63 1003 10 16 0.00 0.00
8:51 pm 20:51 Clear 81 27.2 43 6.1 26 26 NNW 13 20 29.61 1003 10 16 0.00 0.00
9:51 pm 21:51 Clear 77 25 43 6.1 30 30 WNW 9 15 29.62 1003 10 16 0.00 0.00
10:51 pm 22:51 Clear 77 25 42 5.6 29 29 Calm 29.62 1003 10 16 0.00 0.00
11:51 pm 23:51 Clear 72 22.2 45 7.2 38 38 W 5 7 29.61 1003 10 16 0.00 0.00

Powered by AerisWeather